Regional Weather Roundup
Issued by NWS Mt. Holly, NJ

Home | Current Version | Previous Version | Text Only | Print | Product List | Glossary On
Versions: 1 2 3 4 5 6 7 8 9 10 11 12 13 14 15 16 17 18 19 20 21 22 23 24 25 26 27 28 29 30 31 32 33 34 35 36 37 38 39 40 41 42 43 44 45 46 47 48 49 50
000
ASUS41 KPHI 270410
RWRPHI

REGIONAL WEATHER ROUNDUP
NATIONAL WEATHER SERVICE MOUNT HOLLY NJ
1100 PM EST WED NOV 26 2014

NOTE:  "FAIR" INDICATES FEW OR NO CLOUDS BELOW 12,000 FEET WITH NO
SIGNIFICANT WEATHER AND/OR OBSTRUCTIONS TO VISIBILITY.

 * = STATION DOES NOT REPORT PRECIPITATION (E.G. RAIN, SNOW, ETC.)
        OR FOG.

NJZ015>026-270500-
SOUTHERN NEW JERSEY

CITY           SKY/WX    TMP DP  RH WIND       PRES   REMARKS
POMONA         CLOUDY    37  35  92 NW14      29.88R WCI  28
RIO GRANDE*    CLOUDY    37  32  81 NW10      29.90R WCI  30
MILLVILLE      CLOUDY    36  33  89 NW7       29.90R WCI  30
WRIGHTSTOWN    CLOUDY    36  34  93 NW8       29.84R WCI  29
MOUNT HOLLY    CLOUDY    35  33  92 NW6       29.88R WCI  30
TRENTON        CLOUDY    35  31  85 NW9       29.85R WCI  28

$$
NJZ001>014-270500-
NORTHERN NEW JERSEY

CITY           SKY/WX    TMP DP  RH WIND       PRES   REMARKS
SUSSEX         FLURRIES  34  30  85 CALM      29.85R
ANDOVER*         N/A     33  30  88 N7        29.85R WCI  27
MORRISTOWN     FLURRIES  37  32  81 N8G16     29.83S WCI  31
NEWARK         CLOUDY    36  33  89 N15G22    29.83R WCI  27
TETERBORO      FLURRIES  35  32  88 N10       29.82R WCI  27
CALDWELL       FLURRIES  35  30  82 NW5       29.84R WCI  31
SOMERVILLE     CLOUDY    36  31  82 NW9       29.84R WCI  29
ALLAIRE*       CLOUDY    36  28  75 NW13      29.82R WCI  27
TOMS RIVER*    CLOUDY    36  34  93 NW3       29.85R

$$
PAZ043-044-047-054-055-060>062-066>071-270500-
EASTERN PENNSYLVANIA

CITY           SKY/WX    TMP DP  RH WIND       PRES   REMARKS
PHILADELPHIA   CLOUDY    37  31  78 NW12      29.90R WCI  29
NORTH PHILA    CLOUDY    37  31  78 NW8       29.89R WCI  31
BLUE BELL      MOCLDY    36  32  87 CALM      29.87S
DOYLESTOWN     CLOUDY    33  31  92 NW6       29.87R WCI  28
QUAKERTOWN*    CLOUDY    34  32  93 NW6       29.88R WCI  29
POTTSTOWN      CLOUDY    34  30  85 NW6       29.90R WCI  29
LANCASTER      CLOUDY    34  30  85 W9        29.94R WCI  27
COATESVILLE    PTCLDY    32  32 100 NW14      29.91R WCI  22
READING        CLOUDY    36  29  75 NW10      29.92R WCI  28
ALLENTOWN      CLOUDY    36  28  73 N5        29.88R WCI  32
MOUNT POCONO   FLURRIES  29  25  85 NW12G21   29.82R WCI  19
HAZLETON       CLOUDY    30  28  93 NW12      29.89R WCI  21
WILKES BARRE   FLURRIES  32  27  81 W10       29.90S WCI  24

$$
DEZALL-MDZ008-012-015-019-020-270500-
DELAWARE AND EASTERN MARYLAND

CITY           SKY/WX    TMP DP  RH WIND       PRES   REMARKS
WILMINGTON     CLOUDY    37  33  85 NW9       29.92R WCI  30
DOVER          CLOUDY    37  36  97 W8        29.92R WCI  30
GEORGETOWN     CLOUDY    38  34  85 VRB7      29.96R WCI  33
EASTON         MOCLDY    40  40 100 NW8       30.01R WCI  35
PATUXENT       CLOUDY    38  34  85 W13       30.01R WCI  30
OCEAN CITY     CLOUDY    38  36  92 NW9       29.95R WCI  31
WALLOPS ISLAND CLOUDY    39  37  92 NW9       29.98R WCI  33
CAMBRIDGE      MOCLDY    41  36  81 NW8G16    29.98R
SALISBURY      CLOUDY    41  35  79 W9        29.97R

$$
PAZ001-021-NYZ056-072-MDZ011-DCZ001-270500-
OTHER NEARBY LOCATIONS

CITY           SKY/WX    TMP DP  RH WIND       PRES   REMARKS
HARRISBURG     CLOUDY    34  30  85 NW12      29.96R WCI  25
STATE COLLEGE  CLOUDY    32  28  86 CALM      29.96S
WILLIAMSPORT   CLOUDY    32  29  88 W8        29.97R WCI  25
BINGHAMTON     FLURRIES  39  26  59 NW9       29.88S WCI  33
NEW YORK CITY  CLOUDY    35  32  88 VRB6      29.83R WCI  30
BALTIMORE      DRIZZLE   36  32  85 NW6       29.98R WCI  31
WASHINGTON DC  MOCLDY    40  33  76 W7        30.02R

$$


USA.gov is the U.S. government's official web portal to all federal, state and local government web resources and services.